Ely, MN

6:10 AM CST on February 09, 2016 (GMT -0600)
Ely Municipal

Weather History for KELO - March, 2014

Change the Weather History Date:

Friday, March 28, 2014

  Actual Average Record
Temperature  
Mean Temperature 20 °F -  
Max Temperature 30 °F 38 °F 59 °F (1998)
Min Temperature 10 °F 19 °F -2 °F (2008)
Degree Days  
Heating Degree Days 45    
Moisture  
Dew Point 3 °F    
Average Humidity 53    
Maximum Humidity 93    
Minimum Humidity 21    
Precipitation  
Precipitation 0.00 in - - ()
Sea Level Pressure  
Sea Level Pressure 30.01 in    
Wind  
Wind Speed 3 mph (NW)    
Max Wind Speed 10 mph    
Max Gust Speed 18 mph    
Visibility 10 miles    
Events      
Averages and records for this station are not official NWS values.
T = Trace of Precipitation, MM = Missing Value Source: NWS Daily Summary

Daily Weather History Graph

Daily Weather History Graph

Search for Another Location

Airport or City:

Trip Planner

Search our weather history database for the weather conditions in past years. The results will help you decide how hot, cold, wet, or windy it might be!

Date:

Astronomy

Mar. 28, 2014 Rise Set
Actual Time 6:53 AM CDT 7:31 PM CDT
Civil Twilight 6:22 AM CDT 8:02 PM CDT
Nautical Twilight 5:45 AM CDT 8:39 PM CDT
Astronomical Twilight 5:07 AM CDT 9:18 PM CDT
Moon 5:34 AM CDT (3/28) 5:21 PM CDT (3/28)
Length of Visible Light 13h 40m
Length of Day
12h 37m
Waning Crescent, 6% of the Moon is Illuminated
Mar 28
Waning Crescent
Mar 30
New
Apr 7
First Quarter
Apr 15
Full
Apr 22
Last Quarter

Hourly Weather History & Observations

Time (CDT) Temp. Windchill Dew Point Humidity Pressure Visibility Wind Dir Wind Speed Gust Speed Precip Events Conditions
12:13 AM 21.2 °F - 17.6 °F 86% 29.75 in 10.0 mi Calm Calm - N/A   Clear
12:32 AM 19.4 °F - 17.6 °F 93% 29.75 in 10.0 mi Calm Calm - N/A   Clear
12:53 AM 19.4 °F 14.3 °F 15.8 °F 86% 29.76 in 10.0 mi NW 3.5 mph - N/A   Clear
1:13 AM 19.4 °F - 15.8 °F 86% 29.77 in 10.0 mi Calm Calm - N/A   Clear
1:32 AM 17.6 °F - 15.8 °F 93% 29.77 in 10.0 mi Calm Calm - N/A   Clear
1:53 AM 17.6 °F - 15.8 °F 93% 29.78 in 10.0 mi Calm Calm - N/A   Clear
2:13 AM 15.8 °F - 14.0 °F 93% 29.78 in 10.0 mi Calm Calm - N/A   Clear
2:33 AM 15.8 °F - 12.2 °F 86% 29.79 in 10.0 mi Calm Calm - N/A   Clear
2:53 AM 14.0 °F - 12.2 °F 93% 29.80 in 10.0 mi Calm Calm - N/A   Clear
3:13 AM 12.2 °F - 10.4 °F 92% 29.80 in 10.0 mi Calm Calm - N/A   Clear
3:32 AM 12.2 °F - 10.4 °F 92% 29.82 in 10.0 mi Calm Calm - N/A   Clear
3:53 AM 14.0 °F 8.2 °F 12.2 °F 93% 29.83 in 10.0 mi NNW 3.5 mph - N/A   Clear
4:13 AM 14.0 °F - 10.4 °F 86% 29.83 in 10.0 mi Calm Calm - N/A   Clear
4:32 AM 14.0 °F - 10.4 °F 86% 29.85 in 10.0 mi Calm Calm - N/A   Clear
4:53 AM 12.2 °F - 8.6 °F 85% 29.85 in 10.0 mi Calm Calm - N/A   Clear
5:13 AM 12.2 °F 6.1 °F 6.8 °F 79% 29.86 in 10.0 mi NNW 3.5 mph - N/A   Clear
5:32 AM 12.2 °F 4.3 °F 6.8 °F 79% 29.87 in 10.0 mi NNW 4.6 mph - N/A   Clear
5:53 AM 12.2 °F 4.3 °F 6.8 °F 79% 29.89 in 10.0 mi NW 4.6 mph - N/A   Clear
6:13 AM 10.4 °F 4.0 °F 5.0 °F 79% 29.89 in 10.0 mi NNW 3.5 mph - N/A   Clear
6:32 AM 10.4 °F - 5.0 °F 79% 29.90 in 10.0 mi Calm Calm - N/A   Clear
6:53 AM 10.4 °F - 3.2 °F 73% 29.92 in 10.0 mi Calm Calm - N/A   Clear
7:13 AM 10.4 °F - 3.2 °F 73% 29.93 in 10.0 mi Calm Calm - N/A   Clear
7:32 AM 10.4 °F 4.0 °F 3.2 °F 73% 29.95 in 10.0 mi NW 3.5 mph - N/A   Clear
7:53 AM 10.4 °F 4.0 °F 5.0 °F 79% 29.95 in 10.0 mi NW 3.5 mph - N/A   Clear
8:13 AM 12.2 °F 6.1 °F 5.0 °F 73% 29.96 in 10.0 mi NW 3.5 mph - N/A   Clear
8:32 AM 14.0 °F 3.9 °F 5.0 °F 67% 29.97 in 10.0 mi NNW 6.9 mph - N/A   Clear
8:53 AM 15.8 °F 6.1 °F 5.0 °F 62% 29.98 in 10.0 mi NNW 6.9 mph - N/A   Clear
9:13 AM 15.8 °F 8.6 °F 5.0 °F 62% 29.99 in 10.0 mi NW 4.6 mph - N/A   Clear
9:32 AM 17.6 °F 9.3 °F 5.0 °F 58% 30.00 in 10.0 mi NW 5.8 mph - N/A   Clear
9:53 AM 17.6 °F 10.7 °F 5.0 °F 58% 30.01 in 10.0 mi NNW 4.6 mph - N/A   Clear
10:13 AM 19.4 °F 10.4 °F 5.0 °F 54% 30.02 in 10.0 mi NNW 6.9 mph - N/A   Clear
10:32 AM 21.2 °F 11.7 °F 6.8 °F 54% 30.03 in 10.0 mi NNW 8.1 mph - N/A   Clear
10:53 AM 21.2 °F 11.7 °F 6.8 °F 54% 30.03 in 10.0 mi NW 8.1 mph - N/A   Clear
11:13 AM 24.8 °F 16.9 °F 6.8 °F 46% 30.03 in 10.0 mi NNW 6.9 mph - N/A   Clear
11:32 AM 24.8 °F 19.1 °F 6.8 °F 46% 30.04 in 10.0 mi North 4.6 mph - N/A   Clear
11:53 AM 24.8 °F 16.9 °F 3.2 °F 40% 30.04 in 10.0 mi NNE 6.9 mph - N/A   Clear
12:13 PM 26.6 °F 19.1 °F 5.0 °F 40% 30.05 in 10.0 mi NW 6.9 mph - N/A   Clear
12:32 PM 26.6 °F 17.5 °F 3.2 °F 37% 30.06 in 10.0 mi WNW 9.2 mph - N/A   Clear
12:53 PM 28.4 °F 21.2 °F 3.2 °F 34% 30.06 in 10.0 mi NNW 6.9 mph - N/A   Clear
1:13 PM 28.4 °F 19.7 °F 1.4 °F 31% 30.07 in 10.0 mi NW 9.2 mph - N/A   Clear
1:32 PM 28.4 °F 20.4 °F -2.2 °F 27% 30.07 in 10.0 mi NW 8.1 mph - N/A   Clear
1:53 PM 28.4 °F 19.1 °F -0.4 °F 29% 30.08 in 10.0 mi WNW 10.4 mph - N/A   Clear
2:13 PM 30.2 °F 21.3 °F -0.4 °F 27% 30.09 in 10.0 mi NW 10.4 mph - N/A   Clear
2:33 PM 30.2 °F 23.4 °F -0.4 °F 27% 30.08 in 10.0 mi WNW 6.9 mph - N/A   Clear
2:52 PM 30.2 °F 25.4 °F -2.2 °F 25% 30.09 in 10.0 mi NW 4.6 mph 18.4 mph N/A   Clear
3:13 PM 30.2 °F 21.3 °F -2.2 °F 25% 30.09 in 10.0 mi NW 10.4 mph 18.4 mph N/A   Clear
3:32 PM 30.2 °F 24.3 °F -5.8 °F 21% 30.09 in 10.0 mi North 5.8 mph - N/A   Clear
3:53 PM 30.2 °F 24.3 °F -2.2 °F 25% 30.09 in 10.0 mi NW 5.8 mph - N/A   Clear
4:13 PM 30.2 °F 23.4 °F -2.2 °F 25% 30.09 in 10.0 mi West 6.9 mph - N/A   Clear
4:32 PM 30.2 °F 21.9 °F -4.0 °F 23% 30.10 in 10.0 mi WNW 9.2 mph 16.1 mph N/A   Clear
4:53 PM 30.2 °F 21.9 °F -5.8 °F 21% 30.10 in 10.0 mi WNW 9.2 mph - N/A   Clear
5:13 PM 30.2 °F 26.7 °F -5.8 °F 21% 30.11 in 10.0 mi NNW 3.5 mph - N/A   Clear
5:32 PM 30.2 °F 26.7 °F -5.8 °F 21% 30.12 in 10.0 mi NW 3.5 mph - N/A   Clear
5:53 PM 30.2 °F 25.4 °F -5.8 °F 21% 30.12 in 10.0 mi WNW 4.6 mph - N/A   Clear
6:13 PM 30.2 °F 23.4 °F -5.8 °F 21% 30.13 in 10.0 mi NW 6.9 mph - N/A   Clear
6:32 PM 30.2 °F 24.3 °F -4.0 °F 23% 30.13 in 10.0 mi NW 5.8 mph - N/A   Clear
6:53 PM 28.4 °F 22.2 °F -4.0 °F 25% 30.14 in 10.0 mi WNW 5.8 mph - N/A   Clear
7:13 PM 28.4 °F 23.3 °F -5.8 °F 23% 30.14 in 10.0 mi WNW 4.6 mph - N/A   Clear
7:32 PM 26.6 °F 22.6 °F -4.0 °F 26% 30.15 in 10.0 mi WNW 3.5 mph - N/A   Clear
7:53 PM 26.6 °F 22.6 °F -4.0 °F 26% 30.16 in 10.0 mi NW 3.5 mph - N/A   Clear
8:13 PM 26.6 °F - -5.8 °F 24% 30.16 in 10.0 mi Calm Calm - N/A   Clear
8:32 PM 26.6 °F - -5.8 °F 24% 30.17 in 10.0 mi Calm Calm - N/A   Clear
8:53 PM 24.8 °F - -4.0 °F 28% 30.17 in 10.0 mi Calm Calm - N/A   Clear
9:13 PM 24.8 °F - -4.0 °F 28% 30.17 in 10.0 mi Calm Calm - N/A   Clear
9:32 PM 23.0 °F - 1.4 °F 39% 30.17 in 10.0 mi Calm Calm - N/A   Clear
9:53 PM 21.2 °F - 1.4 °F 42% 30.18 in 10.0 mi Calm Calm - N/A   Clear
10:13 PM 21.2 °F - 1.4 °F 42% 30.18 in 10.0 mi Calm Calm - N/A   Clear
10:32 PM 19.4 °F - 1.4 °F 46% 30.18 in 10.0 mi Calm Calm - N/A   Scattered Clouds
10:53 PM 19.4 °F - 1.4 °F 46% 30.19 in 10.0 mi Calm Calm - N/A   Scattered Clouds
11:13 PM 19.4 °F - 3.2 °F 49% 30.20 in 10.0 mi Calm Calm - N/A   Scattered Clouds
11:32 PM 17.6 °F - 1.4 °F 49% 30.20 in 10.0 mi Calm Calm - N/A   Clear
11:53 PM 17.6 °F - 1.4 °F 49% 30.21 in 10.0 mi Calm Calm - N/A   Clear